Defiance, OH

3:17 AM EDT on April 30, 2017 (GMT -0400)
Defiance Memorial

Weather History for KDFI - March, 2013

Change the Weather History Date:

Sunday, March 3, 2013

  Actual Average Record
Temperature  
Mean Temperature 27 °F -  
Max Temperature 30 °F 42 °F 67 °F (1946)
Min Temperature 23 °F 22 °F -6 °F (1978)
Degree Days  
Heating Degree Days 38    
Moisture  
Dew Point 14 °F    
Average Humidity 60    
Maximum Humidity 72    
Minimum Humidity 47    
Precipitation  
Precipitation 0.00 in - - ()
Sea Level Pressure  
Sea Level Pressure 30.08 in    
Wind  
Wind Speed 7 mph (NW)    
Max Wind Speed 12 mph    
Max Gust Speed 21 mph    
Visibility 10 miles    
Events      
Averages and records for this station are not official NWS values.
T = Trace of Precipitation, MM = Missing Value Source: NWS Daily Summary

Daily Weather History Graph

Daily Weather History Graph

Search for Another Location

Airport or City:

Trip Planner

Search our weather history database for the weather conditions in past years. The results will help you decide how hot, cold, wet, or windy it might be!

Date:

Astronomy

Mar. 03, 2013 Rise Set
Actual Time 7:08 AM EST 6:31 PM EST
Civil Twilight 6:41 AM EST 6:58 PM EST
Nautical Twilight 6:09 AM EST 7:30 PM EST
Astronomical Twilight 5:37 AM EST 8:02 PM EST
Moon 12:12 AM EST (3/3) 10:18 AM EST (3/3)
Length of Visible Light 12h 17m
Length of Day
11h 22m
Waning Gibbous, 64% of the Moon is Illuminated
Mar 3
Waning Gibbous
Mar 4
Last Quarter
Mar 11
New
Mar 19
First Quarter
Mar 27
Full

Hourly Weather History & Observations

Time (EST) Temp. Windchill Dew Point Humidity Pressure Visibility Wind Dir Wind Speed Gust Speed Precip Events Conditions
12:53 AM 25.0 °F 17.1 °F 15.1 °F 66% 30.10 in 10.0 mi NW 6.9 mph - N/A   Overcast
1:53 AM 25.0 °F 18.1 °F 15.1 °F 66% 30.10 in 10.0 mi NW 5.8 mph - N/A   Overcast
2:53 AM 25.0 °F 19.3 °F 15.1 °F 66% 30.09 in 10.0 mi NNW 4.6 mph - N/A   Overcast
3:53 AM 25.0 °F 19.3 °F 15.1 °F 66% 30.08 in 10.0 mi NNW 4.6 mph - N/A   Overcast
4:53 AM 24.1 °F 14.4 °F 16.0 °F 71% 30.08 in 10.0 mi NNW 9.2 mph - 0.00 in   Overcast
6:53 AM 24.1 °F 15.2 °F 14.0 °F 65% 30.09 in 10.0 mi NW 8.1 mph - N/A   Overcast
7:25 AM 24.8 °F 15.3 °F 12.2 °F 59% 30.06 in 10.0 mi NW 9.2 mph - N/A   Overcast
7:53 AM 24.1 °F 15.2 °F 12.9 °F 62% 30.09 in 10.0 mi NNW 8.1 mph - N/A   Overcast
8:53 AM 24.1 °F 13.7 °F 12.0 °F 60% 30.10 in 10.0 mi NNW 10.4 mph - N/A   Overcast
9:53 AM 25.0 °F 16.3 °F 12.9 °F 60% 30.10 in 10.0 mi North 8.1 mph - N/A   Overcast
10:53 AM 27.0 °F 17.3 °F 14.0 °F 58% 30.09 in 10.0 mi NNW 10.4 mph 17.3 mph N/A   Mostly Cloudy
11:33 AM 28.4 °F 20.4 °F 14.0 °F 55% 30.06 in 10.0 mi North 8.1 mph - N/A   Scattered Clouds
11:53 AM 28.9 °F 19.8 °F 15.1 °F 56% 30.09 in 10.0 mi NNW 10.4 mph - N/A   Clear
12:53 PM 30.0 °F 24.1 °F 15.1 °F 54% 30.07 in 10.0 mi NW 5.8 mph - N/A   Clear
1:53 PM 30.9 °F 22.2 °F 15.1 °F 52% 30.05 in 10.0 mi NW 10.4 mph 17.3 mph N/A   Partly Cloudy
2:53 PM 30.9 °F 22.8 °F 12.9 °F 47% 30.05 in 10.0 mi NW 9.2 mph 16.1 mph N/A   Partly Cloudy
3:53 PM 30.9 °F 23.5 °F 14.0 °F 50% 30.05 in 10.0 mi WNW 8.1 mph 19.6 mph N/A   Clear
4:53 PM 30.9 °F 21.7 °F 14.0 °F 50% 30.05 in 10.0 mi NW 11.5 mph 20.7 mph N/A   Clear
5:53 PM 30.0 °F 23.2 °F 12.9 °F 49% 30.06 in 10.0 mi WNW 6.9 mph - N/A   Clear
6:53 PM 28.0 °F 21.7 °F 14.0 °F 56% 30.07 in 10.0 mi NW 5.8 mph - N/A   Clear
7:53 PM 28.0 °F - 15.1 °F 58% 30.08 in 10.0 mi Calm Calm - N/A   Clear
8:53 PM 26.1 °F - 16.0 °F 66% 30.10 in 10.0 mi Calm Calm - N/A   Clear
9:53 PM 26.1 °F 19.4 °F 15.1 °F 63% 30.10 in 10.0 mi NW 5.8 mph - N/A   Clear
10:53 PM 24.1 °F 16.0 °F 15.1 °F 69% 30.10 in 10.0 mi NW 6.9 mph - N/A   Clear
11:53 PM 23.0 °F 14.7 °F 15.1 °F 72% 30.10 in 10.0 mi NW 6.9 mph - N/A   Clear